Weather in Vologda

Russia / Vologda Oblast     59°13′13″N   39°53′29″E
temp.,
°C
wind,
m/s
gust,
m/s
humid.,
%
clouds,
%
prec.,
mm/h
press.,
hPa
HPBL,
m
20 january, thu
thu2000:00−6ssw61492100 0.2 1002426
03:00−4ssw61592100 0.9 1000563
06:00−4ssw61393100 0.2 999570
09:00−2ssw61393100 0.4 998546
12:00−1ssw61294100 0.0 998576
15:00−2s61292100 0.0 998595
18:00−3s61292100 0.0 998541
21:00−3s61392100 0.1 998684
21 january, fri
fri2100:00−3s71391100 0.1 998668
03:00−4s71393100 0.4 999589
06:00−5s61292100 0.3 999493
09:00−6sse51193100 0.3 1001410
12:00−6sse5993100 0.1 1002428
15:00−7se5995100 0.7 1003497
18:00−7se51193100 0.4 1003560
21:00−7ese51192100 0.7 1004588
22 january, sat
sat2200:00−9ese51190100 0.1 1006381
03:00−10e499497 0.1 1008269
06:00−11e499594 0.1 1009278
09:00−9e41095100 0.4 1011436
12:00−8ese489399 0.2 1014512
15:00−8e379393 0.3 1016210
18:00−13e259976 0.0 102067
21:00−15e239979 0.1 102242
23 january, sun
sun2300:00−17e2210081 0.0 102512
03:00−19e1110086 0.0 102610
06:00−20e1210096 0.0 102810
09:00−21ne1110098 0.1 103110
12:00−14e129790 0.0 103180
15:00−14nne119715 0.1 10329
18:00−19nnw1110082 0.0 10359
21:00−21wnw1110098 0.0 10369
24 january, mon
mon2400:00−22sw11100100 0.0 10369
03:00−22wsw11100100 0.0 10379
06:00−22sw11100100 0.0 10369
09:00−22sw2210095 0.0 103613
12:00−13ssw249538 0.0 1035123
15:00−11ssw36955 0.0 1033147
18:00−15ssw389732 0.0 1032106
21:00−15ssw4109615 0.0 1030147